SWR282 LSZH-FAOR

Flight info

Callsign SWR282
Flight time N/A
Altitude 34000
Route VEBIT T53 GERSA DCT SOSON DCT ODINA DCT PIDAD/N0461F350 DCT TALEP DCT VAREK DCT ERPIN DCT ETOIL DCT CIRTA UM2 DJA UB730 RAKOM/N0463F370 UB730 DIR UG727 MIU UM998 AMSUX/N0459F390 UM998 IBRIT UT941 RUDAS UQ25 ITROL/N0455F400 UQ44 AVAGO AVAGO1C
Aircraft A343/H-SDE2E3FGHIJ4J5M1RWXY/LB1D1

Departure

Time N/A
Airport Zürich Airport (LSZH)

Arrival

Time 2026-04-30 06:07
Airport O.R. Tambo International Airport (FAOR)
Time Latitude Longitude Altitude Speed Heading
2026-04-29 23:11 22.09140 10.86028 34936 ft 514 kts 155°
2026-04-29 23:11 22.03055 10.90075 34958 ft 513 kts 155°
2026-04-29 23:12 21.96981 10.94110 34957 ft 513 kts 155°
2026-04-29 23:12 21.90908 10.98139 34958 ft 513 kts 155°
2026-04-29 23:13 21.84875 11.02139 34955 ft 513 kts 155°
2026-04-29 23:13 21.78801 11.06161 34955 ft 513 kts 155°
2026-04-29 23:14 21.72718 11.10186 34966 ft 513 kts 155°
2026-04-29 23:14 21.66649 11.14197 34953 ft 512 kts 155°
2026-04-29 23:15 21.60586 11.18200 34961 ft 512 kts 155°
2026-04-29 23:15 21.54557 11.22176 34956 ft 512 kts 155°
2026-04-29 23:16 21.48486 11.26177 34959 ft 512 kts 155°
2026-04-29 23:16 21.42419 11.30170 34961 ft 512 kts 155°
2026-04-29 23:17 21.36357 11.34157 34958 ft 510 kts 155°
2026-04-29 23:17 21.30315 11.38128 34950 ft 509 kts 155°
2026-04-29 23:18 21.24284 11.42087 34957 ft 508 kts 155°
2026-04-29 23:18 21.18289 11.46017 34952 ft 508 kts 155°
2026-04-29 23:19 21.12254 11.49970 34952 ft 508 kts 155°
2026-04-29 23:19 21.06222 11.53925 34955 ft 509 kts 155°
2026-04-29 23:20 21.00181 11.57873 34945 ft 509 kts 155°
2026-04-29 23:20 20.94139 11.61818 34952 ft 509 kts 155°
2026-04-29 23:21 20.88100 11.65760 34941 ft 509 kts 155°
2026-04-29 23:21 20.82061 11.69698 34948 ft 508 kts 155°
2026-04-29 23:22 20.76061 11.73608 34951 ft 508 kts 155°
2026-04-29 23:22 20.70028 11.77534 34941 ft 507 kts 155°
2026-04-29 23:23 20.64012 11.81447 34954 ft 506 kts 155°
2026-04-29 23:23 20.57994 11.85357 34966 ft 507 kts 155°
2026-04-29 23:24 20.51980 11.89261 35104 ft 510 kts 155°
2026-04-29 23:24 20.48949 11.91226 35220 ft 510 kts 155°
2026-04-29 23:24 20.45914 11.93192 35342 ft 510 kts 155°
2026-04-29 23:25 20.42881 11.95155 35456 ft 510 kts 155°
2026-04-29 23:25 20.39845 11.97120 35590 ft 510 kts 155°
2026-04-29 23:25 20.36817 11.99079 35706 ft 509 kts 154°
2026-04-29 23:25 20.33790 12.01038 35845 ft 509 kts 154°
2026-04-29 23:26 20.30766 12.02993 35963 ft 509 kts 154°
2026-04-29 23:26 20.27741 12.04949 36073 ft 509 kts 154°
2026-04-29 23:26 20.24718 12.06902 36185 ft 508 kts 154°
2026-04-29 23:26 20.21688 12.08858 36296 ft 508 kts 154°
2026-04-29 23:27 20.18670 12.10806 36409 ft 508 kts 154°
2026-04-29 23:27 20.15646 12.12757 36511 ft 508 kts 154°
2026-04-29 23:27 20.12629 12.14702 36621 ft 507 kts 154°
2026-04-29 23:27 20.09612 12.16647 36711 ft 507 kts 154°
2026-04-29 23:28 20.06593 12.18592 36816 ft 507 kts 154°
2026-04-29 23:28 20.03616 12.20509 36906 ft 507 kts 154°
2026-04-29 23:28 19.97581 12.24392 36948 ft 505 kts 154°
2026-04-29 23:29 19.91589 12.28248 36950 ft 502 kts 154°
2026-04-29 23:29 19.85614 12.32085 36948 ft 502 kts 154°
2026-04-29 23:30 19.79635 12.35920 36958 ft 502 kts 154°
2026-04-29 23:30 19.73649 12.39757 36954 ft 502 kts 154°
2026-04-29 23:31 19.67706 12.43563 36949 ft 502 kts 154°
2026-04-29 23:31 19.61737 12.47383 36952 ft 501 kts 154°
2026-04-29 23:32 19.55770 12.51199 36955 ft 501 kts 154°
2026-04-29 23:32 19.49801 12.55012 36955 ft 501 kts 154°
2026-04-29 23:33 19.43838 12.58817 36954 ft 501 kts 154°
2026-04-29 23:33 19.37870 12.62623 36953 ft 501 kts 154°
2026-04-29 23:34 19.31941 12.66400 36953 ft 500 kts 154°
2026-04-29 23:34 19.25990 12.70190 36953 ft 499 kts 154°
2026-04-29 23:35 19.20046 12.73970 36958 ft 499 kts 154°
2026-04-29 23:35 19.14099 12.77750 36957 ft 499 kts 154°
2026-04-29 23:36 19.08196 12.81499 36958 ft 498 kts 154°
2026-04-29 23:36 19.02254 12.85248 36962 ft 497 kts 156°
2026-04-29 23:37 18.95895 12.87722 36966 ft 481 kts 176°
2026-04-29 23:37 18.89282 12.88299 36962 ft 477 kts 183°
2026-04-29 23:38 18.82636 12.88493 36959 ft 478 kts 184°
2026-04-29 23:38 18.75987 12.88656 36958 ft 478 kts 184°
2026-04-29 23:39 18.69372 12.88851 36960 ft 478 kts 184°
2026-04-29 23:39 18.62721 12.89068 36956 ft 478 kts 183°
2026-04-29 23:40 18.56062 12.89290 36959 ft 478 kts 183°
2026-04-29 23:40 18.49413 12.89511 36964 ft 478 kts 183°
2026-04-29 23:41 18.42757 12.89731 36954 ft 478 kts 183°
2026-04-29 23:41 18.36147 12.89948 36959 ft 478 kts 183°
2026-04-29 23:42 18.29498 12.90166 36961 ft 478 kts 183°
2026-04-29 23:42 18.22839 12.90385 36959 ft 479 kts 183°
2026-04-29 23:43 18.16182 12.90603 36959 ft 479 kts 183°
2026-04-29 23:43 18.09528 12.90822 36963 ft 478 kts 183°
2026-04-29 23:44 18.02876 12.91040 36953 ft 478 kts 183°
2026-04-29 23:44 17.96258 12.91257 36953 ft 478 kts 182°
2026-04-29 23:45 17.89604 12.91475 36954 ft 479 kts 182°
2026-04-29 23:45 17.82949 12.91692 36958 ft 479 kts 182°
2026-04-29 23:46 17.76291 12.91909 36954 ft 479 kts 182°
2026-04-29 23:46 17.69630 12.92127 36951 ft 479 kts 182°
2026-04-29 23:47 17.62976 12.92344 36953 ft 479 kts 182°
2026-04-29 23:47 17.56314 12.92561 36951 ft 479 kts 182°
2026-04-29 23:48 17.49699 12.92777 36954 ft 479 kts 182°
2026-04-29 23:48 17.43044 12.92993 36953 ft 479 kts 182°
2026-04-29 23:49 17.36382 12.93210 36954 ft 479 kts 182°
2026-04-29 23:49 17.29728 12.93427 36947 ft 479 kts 182°
2026-04-29 23:50 17.23066 12.93643 36949 ft 479 kts 182°
2026-04-29 23:51 17.13118 12.93965 36949 ft 479 kts 182°
2026-04-29 23:51 17.06459 12.94181 36949 ft 479 kts 182°
2026-04-29 23:52 16.99792 12.94397 36949 ft 479 kts 182°
2026-04-29 23:52 16.93135 12.94613 36947 ft 478 kts 182°
2026-04-29 23:53 16.86526 12.94827 36948 ft 478 kts 182°
2026-04-29 23:53 16.79877 12.95042 36949 ft 478 kts 182°
2026-04-29 23:54 16.73220 12.95257 36947 ft 478 kts 182°
2026-04-29 23:54 16.66571 12.95471 36944 ft 478 kts 182°
2026-04-29 23:55 16.59917 12.95686 36943 ft 478 kts 182°
2026-04-29 23:55 16.53261 12.95901 36941 ft 478 kts 182°
2026-04-29 23:56 16.46613 12.96115 36939 ft 478 kts 182°
2026-04-29 23:56 16.39963 12.96329 36937 ft 478 kts 182°
2026-04-29 23:57 16.33357 12.96542 36935 ft 478 kts 182°
2026-04-29 23:57 16.26708 12.96755 36934 ft 478 kts 181°
2026-04-29 23:58 16.20053 12.96970 36934 ft 479 kts 181°
2026-04-29 23:58 16.13397 12.97184 36933 ft 479 kts 181°
2026-04-29 23:59 16.06735 12.97397 36931 ft 479 kts 181°
2026-04-29 23:59 16.00125 12.97609 36930 ft 479 kts 181°
2026-04-30 00:00 15.93470 12.97822 36922 ft 479 kts 181°
2026-04-30 00:00 15.86807 12.98034 36927 ft 479 kts 181°
2026-04-30 00:01 15.80142 12.98246 36923 ft 479 kts 181°
2026-04-30 00:01 15.73470 12.98459 36922 ft 479 kts 181°
2026-04-30 00:02 15.66849 12.98669 36919 ft 479 kts 181°
2026-04-30 00:02 15.60185 12.98881 36915 ft 479 kts 181°
2026-04-30 00:03 15.53519 12.99094 36911 ft 479 kts 181°
2026-04-30 00:03 15.46851 12.99306 36912 ft 479 kts 181°
2026-04-30 00:04 15.40185 12.99517 36915 ft 479 kts 181°
2026-04-30 00:04 15.33520 12.99728 36911 ft 479 kts 181°
2026-04-30 00:05 15.26899 12.99938 36912 ft 479 kts 181°
2026-04-30 00:05 15.20234 13.00150 36910 ft 479 kts 181°
2026-04-30 00:06 15.13563 13.00361 36909 ft 479 kts 181°
2026-04-30 00:06 15.06893 13.00572 36904 ft 479 kts 181°
2026-04-30 00:07 15.00227 13.00783 36896 ft 480 kts 181°
2026-04-30 00:07 14.93557 13.00994 36902 ft 479 kts 181°
2026-04-30 00:08 14.86891 13.01204 36898 ft 479 kts 180°
2026-04-30 00:08 14.80268 13.01413 36895 ft 479 kts 180°
2026-04-30 00:09 14.73605 13.01624 36896 ft 479 kts 180°
2026-04-30 00:09 14.66937 13.01834 36892 ft 479 kts 180°
2026-04-30 00:10 14.60272 13.02044 36896 ft 479 kts 180°
2026-04-30 00:10 14.53608 13.02254 36886 ft 479 kts 180°
2026-04-30 00:11 14.46951 13.02463 36897 ft 478 kts 180°
2026-04-30 00:11 14.40308 13.02672 36895 ft 478 kts 180°
2026-04-30 00:12 14.33706 13.02880 36892 ft 478 kts 180°
2026-04-30 00:12 14.27058 13.03089 36892 ft 478 kts 180°
2026-04-30 00:13 14.20413 13.03282 36890 ft 478 kts 181°
2026-04-30 00:13 14.13767 13.03426 36888 ft 478 kts 181°
2026-04-30 00:14 14.07161 13.03566 36885 ft 478 kts 181°
2026-04-30 00:14 14.00519 13.03716 36887 ft 478 kts 181°
2026-04-30 00:15 13.93874 13.03870 36887 ft 478 kts 181°
2026-04-30 00:15 13.87225 13.04025 36887 ft 478 kts 181°
2026-04-30 00:16 13.80584 13.04179 36884 ft 477 kts 180°
2026-04-30 00:16 13.73951 13.04332 36884 ft 476 kts 181°
2026-04-30 00:17 13.67372 13.04485 36876 ft 476 kts 180°
2026-04-30 00:17 13.60741 13.04638 36876 ft 476 kts 180°
2026-04-30 00:18 13.54110 13.04792 36870 ft 477 kts 180°
2026-04-30 00:18 13.47486 13.04979 36871 ft 476 kts 180°
2026-04-30 00:19 13.40858 13.05181 36871 ft 476 kts 180°
2026-04-30 00:19 13.34281 13.05378 36868 ft 476 kts 180°
2026-04-30 00:20 13.27668 13.05572 36867 ft 476 kts 180°
2026-04-30 00:20 13.21044 13.05766 36868 ft 476 kts 180°
2026-04-30 00:21 13.14428 13.05959 36863 ft 476 kts 180°
2026-04-30 00:21 13.07810 13.06153 36865 ft 476 kts 180°
2026-04-30 00:22 13.01194 13.06346 36861 ft 475 kts 180°
2026-04-30 00:22 12.94630 13.06538 36862 ft 475 kts 180°
2026-04-30 00:23 12.88010 13.06731 36863 ft 475 kts 180°
2026-04-30 00:23 12.81401 13.06924 36867 ft 475 kts 180°
2026-04-30 00:24 12.74793 13.07117 36868 ft 475 kts 180°
2026-04-30 00:24 12.68191 13.07309 36870 ft 474 kts 180°
2026-04-30 00:25 12.61599 13.07501 36869 ft 474 kts 180°
2026-04-30 00:25 12.55053 13.07692 36873 ft 474 kts 180°
2026-04-30 00:26 12.48454 13.07884 36876 ft 474 kts 180°
2026-04-30 00:26 12.41856 13.08076 36878 ft 474 kts 180°
2026-04-30 00:27 12.35263 13.08268 36876 ft 474 kts 180°
2026-04-30 00:27 12.28661 13.08463 36876 ft 474 kts 180°
2026-04-30 00:28 12.23181 13.08620 36875 ft 474 kts 180°
2026-04-30 00:28 12.15513 13.08838 36876 ft 474 kts 180°
2026-04-30 00:29 12.08921 13.09027 36878 ft 474 kts 180°
2026-04-30 00:29 12.03433 13.09184 36876 ft 475 kts 180°
2026-04-30 00:30 11.96818 13.09375 36878 ft 475 kts 180°
2026-04-30 00:30 11.90204 13.09569 36876 ft 475 kts 179°
2026-04-30 00:30 11.85864 13.10161 36879 ft 477 kts 167°
2026-04-30 00:31 11.82658 13.11022 36881 ft 476 kts 165°
2026-04-30 00:31 11.77338 13.12627 36879 ft 476 kts 164°
2026-04-30 00:32 11.71015 13.14631 36879 ft 476 kts 163°
2026-04-30 00:32 11.64735 13.16619 36878 ft 476 kts 163°
2026-04-30 00:33 11.58410 13.18602 36875 ft 475 kts 163°
2026-04-30 00:33 11.52084 13.20576 36880 ft 475 kts 163°
2026-04-30 00:34 11.45753 13.22548 36878 ft 476 kts 163°
2026-04-30 00:34 11.39460 13.24510 36877 ft 476 kts 163°
2026-04-30 00:35 11.33129 13.26482 36881 ft 475 kts 163°
2026-04-30 00:35 11.26812 13.28448 36880 ft 475 kts 163°
2026-04-30 00:36 11.20490 13.30417 36879 ft 475 kts 163°
2026-04-30 00:36 11.14163 13.32385 36891 ft 475 kts 163°
2026-04-30 00:37 11.07840 13.34351 36886 ft 475 kts 163°
2026-04-30 00:37 11.01519 13.36316 36892 ft 475 kts 163°
2026-04-30 00:38 10.95198 13.38279 36902 ft 475 kts 163°
2026-04-30 00:38 10.88920 13.40229 36900 ft 475 kts 163°
2026-04-30 00:39 10.82594 13.42193 36899 ft 475 kts 163°
2026-04-30 00:39 10.76276 13.44153 36903 ft 475 kts 163°
2026-04-30 00:40 10.69955 13.46114 36914 ft 475 kts 163°
2026-04-30 00:40 10.63674 13.48061 36913 ft 475 kts 163°
2026-04-30 00:41 10.57346 13.50009 36914 ft 475 kts 163°
2026-04-30 00:41 10.50981 13.51851 36914 ft 477 kts 164°
2026-04-30 00:42 10.44585 13.53675 36911 ft 477 kts 164°
2026-04-30 00:42 10.38191 13.55512 36916 ft 478 kts 164°
2026-04-30 00:43 10.31800 13.57360 36916 ft 477 kts 164°
2026-04-30 00:43 10.25460 13.59195 36912 ft 477 kts 164°
2026-04-30 00:44 10.19072 13.61044 36913 ft 477 kts 164°
2026-04-30 00:44 10.12681 13.62892 36900 ft 477 kts 164°
2026-04-30 00:45 10.06293 13.64738 36889 ft 477 kts 164°
2026-04-30 00:45 9.99903 13.66588 36889 ft 477 kts 164°
2026-04-30 00:46 9.93559 13.68428 36880 ft 477 kts 164°
2026-04-30 00:46 9.87170 13.70281 36878 ft 478 kts 163°
2026-04-30 00:47 9.80775 13.72133 36871 ft 478 kts 163°
2026-04-30 00:47 9.74378 13.73985 36871 ft 478 kts 163°
2026-04-30 00:48 9.67983 13.75836 36868 ft 478 kts 163°
2026-04-30 00:48 9.61585 13.77686 36868 ft 478 kts 163°
2026-04-30 00:49 9.55189 13.79536 36865 ft 478 kts 163°
2026-04-30 00:49 9.48791 13.81388 36865 ft 479 kts 163°
2026-04-30 00:50 9.42434 13.83256 36866 ft 479 kts 163°
2026-04-30 00:50 9.36038 13.85141 36865 ft 479 kts 163°
2026-04-30 00:51 9.29640 13.87015 36864 ft 480 kts 163°
2026-04-30 00:51 9.23200 13.88867 36867 ft 481 kts 163°
2026-04-30 00:52 9.16763 13.90717 36871 ft 481 kts 163°
2026-04-30 00:52 9.10324 13.92572 36875 ft 481 kts 163°
2026-04-30 00:53 9.03922 13.94419 36873 ft 481 kts 163°
2026-04-30 00:53 8.97482 13.96276 36873 ft 482 kts 163°
2026-04-30 00:54 8.91036 13.98135 36879 ft 481 kts 163°
2026-04-30 00:54 8.84591 13.99992 36878 ft 481 kts 163°
2026-04-30 00:55 8.78151 14.01847 36888 ft 481 kts 163°
2026-04-30 00:55 8.68499 14.04626 36885 ft 481 kts 163°
2026-04-30 00:56 8.62113 14.06468 36892 ft 481 kts 163°
2026-04-30 00:56 8.55678 14.08317 36885 ft 481 kts 163°
2026-04-30 00:57 8.49240 14.10164 36895 ft 481 kts 163°
2026-04-30 00:57 8.42805 14.12011 36895 ft 481 kts 163°
2026-04-30 00:58 8.36374 14.13858 36903 ft 481 kts 163°
2026-04-30 00:58 8.29989 14.15691 36900 ft 480 kts 163°
2026-04-30 00:59 8.23560 14.17537 36919 ft 480 kts 163°
2026-04-30 00:59 8.17131 14.19381 36915 ft 480 kts 163°
2026-04-30 01:00 8.10699 14.21226 36922 ft 480 kts 163°
2026-04-30 01:00 8.04266 14.23070 36942 ft 480 kts 163°
2026-04-30 01:01 7.97851 14.24911 36938 ft 479 kts 163°
2026-04-30 01:01 7.91479 14.26740 36950 ft 479 kts 163°
2026-04-30 01:02 7.85068 14.28574 36951 ft 479 kts 163°
2026-04-30 01:02 7.78650 14.30411 36961 ft 479 kts 163°
2026-04-30 01:03 7.72241 14.32246 36964 ft 479 kts 163°
2026-04-30 01:03 7.65832 14.34082 36966 ft 478 kts 163°
2026-04-30 01:04 7.59472 14.35901 36980 ft 478 kts 163°
2026-04-30 01:04 7.53079 14.37730 36967 ft 478 kts 163°
2026-04-30 01:05 7.46680 14.39561 36981 ft 478 kts 163°
2026-04-30 01:05 7.40277 14.41391 36982 ft 478 kts 163°
2026-04-30 01:06 7.33880 14.43220 36992 ft 478 kts 163°
2026-04-30 01:06 7.27486 14.45047 36992 ft 477 kts 163°
2026-04-30 01:07 7.21098 14.46874 36994 ft 477 kts 163°
2026-04-30 01:07 7.14751 14.48686 36998 ft 477 kts 163°
2026-04-30 01:08 7.08363 14.50509 36983 ft 477 kts 163°
2026-04-30 01:08 7.01969 14.52333 37001 ft 477 kts 163°
2026-04-30 01:09 6.95582 14.54155 36997 ft 477 kts 163°
2026-04-30 01:09 6.89191 14.55979 37001 ft 477 kts 163°
2026-04-30 01:10 6.82804 14.57800 37001 ft 477 kts 163°
2026-04-30 01:10 6.76457 14.59609 36999 ft 477 kts 163°
2026-04-30 01:11 6.70062 14.61432 36998 ft 477 kts 163°
2026-04-30 01:11 6.63676 14.63252 36999 ft 477 kts 163°
2026-04-30 01:12 6.57287 14.65072 36999 ft 477 kts 164°
2026-04-30 01:12 6.50907 14.66889 36997 ft 477 kts 164°
2026-04-30 01:13 6.44522 14.68707 36993 ft 477 kts 164°
2026-04-30 01:13 6.38178 14.70512 36994 ft 477 kts 164°
2026-04-30 01:14 6.31796 14.72328 36990 ft 477 kts 164°
2026-04-30 01:14 6.25408 14.74145 36995 ft 477 kts 164°
2026-04-30 01:15 6.19016 14.75963 36991 ft 478 kts 164°
2026-04-30 01:15 6.12615 14.77783 36984 ft 478 kts 164°
2026-04-30 01:16 6.06252 14.79592 36990 ft 478 kts 164°
2026-04-30 01:16 5.99854 14.81410 36988 ft 478 kts 164°
2026-04-30 01:17 5.93451 14.83229 36984 ft 478 kts 164°
2026-04-30 01:17 5.87047 14.85048 36979 ft 478 kts 164°
2026-04-30 01:18 5.80637 14.86868 36985 ft 479 kts 164°
2026-04-30 01:18 5.74270 14.88676 36984 ft 479 kts 164°
2026-04-30 01:19 5.67853 14.90497 36981 ft 479 kts 164°
2026-04-30 01:19 5.61433 14.92319 36982 ft 479 kts 164°
2026-04-30 01:20 5.55026 14.94136 36971 ft 478 kts 164°
2026-04-30 01:20 5.48637 14.95949 36974 ft 477 kts 163°
2026-04-30 01:21 5.42243 14.97763 36966 ft 478 kts 163°
2026-04-30 01:21 5.35890 14.99564 36970 ft 478 kts 164°
2026-04-30 01:22 5.29492 15.01378 36964 ft 478 kts 164°
2026-04-30 01:22 5.23095 15.03190 36965 ft 478 kts 164°
2026-04-30 01:23 5.16697 15.05003 36964 ft 478 kts 164°
2026-04-30 01:23 5.10302 15.06815 36968 ft 478 kts 163°
2026-04-30 01:24 5.03899 15.08629 36963 ft 478 kts 163°
2026-04-30 01:24 4.97495 15.10442 36962 ft 478 kts 163°
2026-04-30 01:25 4.91134 15.12240 36962 ft 478 kts 164°
2026-04-30 01:25 4.84732 15.14051 36964 ft 478 kts 163°
2026-04-30 01:26 4.78325 15.15866 36957 ft 478 kts 163°
2026-04-30 01:26 4.71925 15.17678 36961 ft 479 kts 164°
2026-04-30 01:27 4.65515 15.19491 36956 ft 479 kts 164°
2026-04-30 01:27 4.59101 15.21305 36959 ft 479 kts 164°
2026-04-30 01:28 4.52733 15.23106 36953 ft 479 kts 164°
2026-04-30 01:28 4.46322 15.24918 36954 ft 479 kts 164°
2026-04-30 01:29 4.39908 15.26731 36952 ft 479 kts 164°
2026-04-30 01:29 4.33497 15.28544 36953 ft 479 kts 164°
2026-04-30 01:30 4.27077 15.30357 36954 ft 479 kts 164°
2026-04-30 01:30 4.20663 15.32169 36956 ft 479 kts 164°
2026-04-30 01:31 4.14241 15.33982 36952 ft 479 kts 164°
2026-04-30 01:31 4.07861 15.35770 36950 ft 479 kts 164°
2026-04-30 01:32 4.01441 15.37571 36954 ft 479 kts 164°
2026-04-30 01:32 3.95029 15.39366 36950 ft 478 kts 164°
2026-04-30 01:33 3.88617 15.41161 36952 ft 478 kts 164°
2026-04-30 01:33 3.82209 15.42956 36957 ft 478 kts 164°
2026-04-30 01:34 3.75841 15.44740 36957 ft 478 kts 164°
2026-04-30 01:34 3.69436 15.46534 36956 ft 478 kts 164°
2026-04-30 01:35 3.63029 15.48329 36952 ft 478 kts 164°
2026-04-30 01:35 3.56626 15.50121 36953 ft 477 kts 164°
2026-04-30 01:36 3.50229 15.51913 36951 ft 477 kts 164°
2026-04-30 01:36 3.43832 15.53704 36949 ft 477 kts 164°
2026-04-30 01:37 3.37480 15.55482 36957 ft 477 kts 164°
2026-04-30 01:37 3.31085 15.57273 36956 ft 477 kts 164°
2026-04-30 01:38 3.24687 15.59063 36950 ft 477 kts 164°
2026-04-30 01:38 3.18290 15.60853 36953 ft 477 kts 164°
2026-04-30 01:39 3.11891 15.62644 36955 ft 477 kts 164°
2026-04-30 01:39 3.05490 15.64434 36946 ft 477 kts 164°
2026-04-30 01:40 2.99094 15.66223 36951 ft 477 kts 164°
2026-04-30 01:40 2.92744 15.67999 36946 ft 477 kts 164°
2026-04-30 01:41 2.86353 15.69787 36949 ft 477 kts 164°
2026-04-30 01:41 2.79967 15.71573 36949 ft 477 kts 164°
2026-04-30 01:42 2.73581 15.73374 36947 ft 477 kts 164°
2026-04-30 01:42 2.67199 15.75178 36945 ft 477 kts 164°
2026-04-30 01:43 2.60857 15.76971 36940 ft 476 kts 164°
2026-04-30 01:43 2.54482 15.78772 36933 ft 476 kts 164°
2026-04-30 01:44 2.48104 15.80572 36941 ft 476 kts 164°
2026-04-30 01:44 2.41727 15.82372 36937 ft 476 kts 164°
2026-04-30 01:45 2.35354 15.84171 36932 ft 476 kts 164°
2026-04-30 01:45 2.28974 15.85972 36930 ft 476 kts 164°
2026-04-30 01:46 2.22643 15.87758 36930 ft 476 kts 164°
2026-04-30 01:46 2.16271 15.89556 36933 ft 475 kts 164°
2026-04-30 01:47 2.09915 15.91349 36929 ft 474 kts 164°
2026-04-30 01:47 2.03566 15.93140 36928 ft 474 kts 164°
2026-04-30 01:48 1.97217 15.94932 36925 ft 474 kts 164°
2026-04-30 01:48 1.90864 15.96724 36926 ft 474 kts 164°
2026-04-30 01:49 1.84516 15.98515 36928 ft 474 kts 164°
2026-04-30 01:49 1.78213 16.00292 36929 ft 473 kts 164°
2026-04-30 01:50 1.71887 16.02076 36923 ft 472 kts 164°
2026-04-30 01:50 1.65567 16.03859 36926 ft 472 kts 164°
2026-04-30 01:51 1.59249 16.05641 36929 ft 472 kts 164°
2026-04-30 01:51 1.52931 16.07422 36921 ft 472 kts 164°
2026-04-30 01:52 1.46613 16.09203 36922 ft 472 kts 164°
2026-04-30 01:52 1.40334 16.10974 36921 ft 472 kts 163°
2026-04-30 01:53 1.34018 16.12755 36925 ft 472 kts 164°
2026-04-30 01:53 1.27699 16.14536 36923 ft 472 kts 164°
2026-04-30 01:54 1.21381 16.16315 36923 ft 472 kts 164°
2026-04-30 01:54 1.15061 16.18095 36926 ft 472 kts 164°
2026-04-30 01:55 1.09808 16.19574 36921 ft 472 kts 164°
2026-04-30 01:55 1.03494 16.21354 36923 ft 472 kts 164°
2026-04-30 01:56 0.96153 16.23423 36922 ft 472 kts 164°
2026-04-30 01:56 0.89838 16.25205 36916 ft 471 kts 164°
2026-04-30 01:57 0.84590 16.26686 36923 ft 472 kts 164°
2026-04-30 01:57 0.78272 16.28464 36923 ft 472 kts 164°
2026-04-30 01:58 0.71957 16.30242 36914 ft 472 kts 164°
2026-04-30 01:58 0.65649 16.32019 36921 ft 470 kts 164°
2026-04-30 01:59 0.56204 16.34681 36923 ft 470 kts 164°
2026-04-30 02:00 0.49956 16.36442 36924 ft 470 kts 164°
2026-04-30 02:00 0.43659 16.38216 36925 ft 470 kts 164°
2026-04-30 02:01 0.37357 16.39991 36925 ft 470 kts 164°
2026-04-30 02:01 0.31062 16.41765 36923 ft 470 kts 164°
2026-04-30 02:02 0.24757 16.43542 36924 ft 471 kts 164°
2026-04-30 02:02 0.18455 16.45317 36926 ft 471 kts 164°
2026-04-30 02:03 0.12195 16.47081 36923 ft 471 kts 164°
2026-04-30 02:03 0.05891 16.48857 36924 ft 471 kts 164°
2026-04-30 02:04 -0.00408 16.50632 36928 ft 471 kts 164°
2026-04-30 02:04 -0.06710 16.52408 36927 ft 471 kts 164°
2026-04-30 02:05 -0.13023 16.54186 36919 ft 471 kts 164°
2026-04-30 02:05 -0.19338 16.55966 36922 ft 471 kts 164°
2026-04-30 02:06 -0.25607 16.57732 36926 ft 471 kts 164°
2026-04-30 02:06 -0.31919 16.59510 36922 ft 471 kts 164°
2026-04-30 02:07 -0.38229 16.61289 36927 ft 471 kts 164°
2026-04-30 02:07 -0.44544 16.63068 36925 ft 471 kts 164°
2026-04-30 02:08 -0.50857 16.64847 36923 ft 471 kts 164°
2026-04-30 02:08 -0.57171 16.66628 36922 ft 471 kts 164°
2026-04-30 02:09 -0.63441 16.68385 36923 ft 471 kts 164°
2026-04-30 02:09 -0.69755 16.70146 36926 ft 471 kts 164°
2026-04-30 02:10 -0.76066 16.71908 36924 ft 470 kts 164°
2026-04-30 02:10 -0.82354 16.73667 36925 ft 469 kts 164°
2026-04-30 02:11 -0.88641 16.75426 36927 ft 469 kts 164°
2026-04-30 02:11 -0.94928 16.77186 36924 ft 469 kts 164°
2026-04-30 02:12 -1.01176 16.78934 36925 ft 469 kts 164°
2026-04-30 02:12 -1.07457 16.80692 36928 ft 469 kts 164°
2026-04-30 02:13 -1.13740 16.82451 36924 ft 468 kts 164°
2026-04-30 02:13 -1.20010 16.84205 36921 ft 468 kts 164°
2026-04-30 02:14 -1.26278 16.85956 36920 ft 467 kts 165°
2026-04-30 02:14 -1.32550 16.87680 36926 ft 468 kts 165°
2026-04-30 02:15 -1.38778 16.89389 36922 ft 468 kts 165°
2026-04-30 02:15 -1.45053 16.91115 36927 ft 468 kts 165°
2026-04-30 02:16 -1.51326 16.92845 36928 ft 467 kts 165°
2026-04-30 02:16 -1.57591 16.94572 36928 ft 467 kts 165°
2026-04-30 02:17 -1.63856 16.96300 36931 ft 467 kts 165°
2026-04-30 02:17 -1.70123 16.98028 36927 ft 467 kts 165°
2026-04-30 02:18 -1.76346 16.99745 36928 ft 467 kts 165°
2026-04-30 02:18 -1.82612 17.01472 36935 ft 467 kts 165°
2026-04-30 02:19 -1.88878 17.03201 36928 ft 468 kts 165°
2026-04-30 02:19 -1.95155 17.04941 36930 ft 468 kts 164°
2026-04-30 02:20 -2.01424 17.06693 36929 ft 468 kts 164°
2026-04-30 02:20 -2.07687 17.08445 36929 ft 468 kts 164°
2026-04-30 02:21 -2.13922 17.10187 36927 ft 468 kts 164°
2026-04-30 02:21 -2.20190 17.11937 36932 ft 468 kts 164°
2026-04-30 02:22 -2.26462 17.13688 36935 ft 468 kts 164°
2026-04-30 02:22 -2.32736 17.15439 36933 ft 468 kts 164°
2026-04-30 02:23 -2.39016 17.17193 36928 ft 468 kts 164°
2026-04-30 02:23 -2.45291 17.18945 36930 ft 468 kts 164°
2026-04-30 02:24 -2.51568 17.20698 36934 ft 468 kts 164°
2026-04-30 02:24 -2.57806 17.22440 36935 ft 468 kts 164°
2026-04-30 02:25 -2.64083 17.24194 36932 ft 469 kts 164°
2026-04-30 02:25 -2.70368 17.25950 36932 ft 469 kts 164°
2026-04-30 02:26 -2.76651 17.27705 36933 ft 469 kts 164°
2026-04-30 02:26 -2.82927 17.29459 36933 ft 469 kts 164°
2026-04-30 02:27 -2.89211 17.31215 36929 ft 469 kts 164°
2026-04-30 02:27 -2.95494 17.32971 36927 ft 469 kts 163°
2026-04-30 02:28 -3.01743 17.34718 36931 ft 470 kts 163°
2026-04-30 02:28 -3.08040 17.36478 36929 ft 470 kts 163°
2026-04-30 02:29 -3.14340 17.38240 36926 ft 470 kts 163°
2026-04-30 02:29 -3.20637 17.40000 36930 ft 470 kts 163°
2026-04-30 02:30 -3.26936 17.41762 36926 ft 470 kts 163°
2026-04-30 02:30 -3.33186 17.43510 36931 ft 470 kts 163°
2026-04-30 02:31 -3.39479 17.45270 36932 ft 470 kts 163°
2026-04-30 02:31 -3.45772 17.47036 36936 ft 470 kts 163°
2026-04-30 02:32 -3.52064 17.48805 36943 ft 470 kts 163°
2026-04-30 02:32 -3.58360 17.50576 36943 ft 470 kts 163°
2026-04-30 02:33 -3.64610 17.52333 36931 ft 470 kts 163°
2026-04-30 02:33 -3.70896 17.54101 36940 ft 470 kts 163°
2026-04-30 02:34 -3.77189 17.55871 36941 ft 469 kts 163°
2026-04-30 02:34 -3.83481 17.57640 36925 ft 470 kts 163°
2026-04-30 02:35 -3.89771 17.59410 36943 ft 470 kts 163°
2026-04-30 02:35 -3.96060 17.61180 36949 ft 469 kts 163°
2026-04-30 02:36 -4.02349 17.62950 36931 ft 469 kts 163°
2026-04-30 02:36 -4.08594 17.64707 36950 ft 469 kts 163°
2026-04-30 02:37 -4.14881 17.66478 36946 ft 469 kts 163°
2026-04-30 02:37 -4.21175 17.68235 36948 ft 469 kts 163°
2026-04-30 02:38 -4.27465 17.69992 36955 ft 469 kts 163°
2026-04-30 02:38 -4.33761 17.71752 36943 ft 470 kts 163°
2026-04-30 02:39 -4.40054 17.73514 36951 ft 469 kts 164°
2026-04-30 02:39 -4.46289 17.75261 36936 ft 468 kts 164°
2026-04-30 02:40 -4.52557 17.77016 36956 ft 468 kts 164°
2026-04-30 02:40 -4.58829 17.78773 36956 ft 468 kts 164°
2026-04-30 02:41 -4.65092 17.80528 36959 ft 468 kts 164°
2026-04-30 02:41 -4.71362 17.82285 36954 ft 468 kts 164°
2026-04-30 02:42 -4.77633 17.84044 36954 ft 468 kts 164°
2026-04-30 02:42 -4.83863 17.85790 36953 ft 468 kts 164°
2026-04-30 02:43 -4.90138 17.87558 36955 ft 469 kts 164°
2026-04-30 02:43 -4.96409 17.89350 36963 ft 468 kts 164°
2026-04-30 02:44 -5.02674 17.91141 36965 ft 468 kts 164°
2026-04-30 02:44 -5.08946 17.92932 36972 ft 468 kts 164°
2026-04-30 02:45 -5.15170 17.94708 36972 ft 468 kts 164°
2026-04-30 02:45 -5.21434 17.96495 36968 ft 468 kts 164°
2026-04-30 02:46 -5.27691 17.98280 36971 ft 468 kts 164°
2026-04-30 02:46 -5.33961 18.00069 36972 ft 468 kts 164°
2026-04-30 02:47 -5.40216 18.01856 37120 ft 468 kts 164°
2026-04-30 02:47 -5.43355 18.02735 37270 ft 468 kts 164°
2026-04-30 02:47 -5.46496 18.03599 37418 ft 467 kts 164°
2026-04-30 02:47 -5.49630 18.04453 37565 ft 467 kts 164°
2026-04-30 02:48 -5.52722 18.05297 37712 ft 466 kts 164°
2026-04-30 02:48 -5.55848 18.06152 37841 ft 466 kts 164°
2026-04-30 02:48 -5.58977 18.07010 37980 ft 466 kts 164°
2026-04-30 02:48 -5.62105 18.07871 38103 ft 465 kts 164°
2026-04-30 02:49 -5.65226 18.08730 38239 ft 465 kts 164°
2026-04-30 02:49 -5.68346 18.09590 38361 ft 465 kts 164°
2026-04-30 02:49 -5.71462 18.10449 38480 ft 465 kts 164°
2026-04-30 02:49 -5.74580 18.11308 38591 ft 464 kts 164°
2026-04-30 02:50 -5.77693 18.12167 38703 ft 464 kts 164°
2026-04-30 02:50 -5.83930 18.13886 38769 ft 467 kts 164°
2026-04-30 02:51 -5.90199 18.15615 38944 ft 467 kts 164°
2026-04-30 02:51 -5.96433 18.17333 38992 ft 470 kts 164°
2026-04-30 02:52 -6.02739 18.19071 38991 ft 469 kts 164°
2026-04-30 02:52 -6.09022 18.20804 38993 ft 468 kts 164°
2026-04-30 02:53 -6.15303 18.22536 38989 ft 468 kts 164°
2026-04-30 02:53 -6.21581 18.24269 38994 ft 468 kts 164°
2026-04-30 02:54 -6.27811 18.26027 38992 ft 468 kts 163°
2026-04-30 02:54 -6.34079 18.27824 38990 ft 468 kts 163°
2026-04-30 02:55 -6.40346 18.29616 38999 ft 468 kts 163°
2026-04-30 02:55 -6.46620 18.31403 38999 ft 468 kts 163°
2026-04-30 02:56 -6.52898 18.33161 38998 ft 469 kts 164°
2026-04-30 02:56 -6.59195 18.34919 38999 ft 470 kts 164°
2026-04-30 02:57 -6.65500 18.36683 39001 ft 470 kts 164°
2026-04-30 02:57 -6.71754 18.38436 39001 ft 470 kts 163°
2026-04-30 02:58 -6.78056 18.40204 39001 ft 470 kts 163°
2026-04-30 02:58 -6.84356 18.41972 39005 ft 470 kts 163°
2026-04-30 02:59 -6.90652 18.43739 39002 ft 468 kts 164°
2026-04-30 02:59 -6.96901 18.45493 39004 ft 465 kts 164°
2026-04-30 03:00 -7.03084 18.47230 39005 ft 464 kts 164°
2026-04-30 03:00 -7.09310 18.48980 39007 ft 465 kts 164°
2026-04-30 03:01 -7.15536 18.50730 39009 ft 465 kts 164°
2026-04-30 03:01 -7.21759 18.52505 39006 ft 464 kts 163°
2026-04-30 03:02 -7.27937 18.54392 39007 ft 464 kts 162°
2026-04-30 03:02 -7.34112 18.56297 39007 ft 464 kts 163°
2026-04-30 03:03 -7.40239 18.58172 39007 ft 464 kts 163°
2026-04-30 03:03 -7.49521 18.60996 39007 ft 464 kts 163°
2026-04-30 03:04 -7.55702 18.62875 39007 ft 464 kts 163°
2026-04-30 03:04 -7.61878 18.64754 39007 ft 464 kts 163°
2026-04-30 03:05 -7.68062 18.66637 39007 ft 464 kts 163°
2026-04-30 03:05 -7.74244 18.68519 39007 ft 464 kts 163°
2026-04-30 03:06 -7.80422 18.70401 39007 ft 464 kts 163°
2026-04-30 03:06 -7.86561 18.72272 39010 ft 464 kts 163°
2026-04-30 03:07 -7.92740 18.74155 39008 ft 464 kts 163°
2026-04-30 03:07 -7.98920 18.76039 39010 ft 464 kts 163°
2026-04-30 03:08 -8.05104 18.77925 39013 ft 464 kts 163°
2026-04-30 03:08 -8.11277 18.79809 39012 ft 464 kts 163°
2026-04-30 03:09 -8.17413 18.81681 39013 ft 464 kts 163°
2026-04-30 03:09 -8.23589 18.83566 39012 ft 464 kts 163°
2026-04-30 03:10 -8.29766 18.85453 39015 ft 464 kts 163°
2026-04-30 03:10 -8.35950 18.87342 39015 ft 464 kts 163°
2026-04-30 03:11 -8.42140 18.89202 39015 ft 464 kts 164°
2026-04-30 03:11 -8.48298 18.91035 39015 ft 464 kts 164°
2026-04-30 03:12 -8.54488 18.92882 39018 ft 464 kts 164°
2026-04-30 03:12 -8.60679 18.94734 39015 ft 464 kts 164°
2026-04-30 03:13 -8.66870 18.96589 39018 ft 464 kts 164°
2026-04-30 03:13 -8.73061 18.98444 39015 ft 464 kts 164°
2026-04-30 03:14 -8.79251 19.00299 39018 ft 464 kts 164°
2026-04-30 03:14 -8.85403 19.02144 39018 ft 464 kts 164°
2026-04-30 03:15 -8.91589 19.04000 39018 ft 464 kts 164°
2026-04-30 03:15 -8.97780 19.05857 39017 ft 464 kts 164°
2026-04-30 03:16 -9.03986 19.07720 39018 ft 465 kts 164°
2026-04-30 03:16 -9.10193 19.09583 39018 ft 465 kts 164°
2026-04-30 03:17 -9.16399 19.11447 39018 ft 465 kts 164°
2026-04-30 03:17 -9.22566 19.13301 39016 ft 466 kts 164°
2026-04-30 03:18 -9.28782 19.15169 39017 ft 466 kts 164°
2026-04-30 03:18 -9.35006 19.17041 39014 ft 467 kts 164°
2026-04-30 03:19 -9.41229 19.18913 39014 ft 467 kts 164°
2026-04-30 03:19 -9.47460 19.20788 39015 ft 467 kts 164°
2026-04-30 03:20 -9.53690 19.22663 39015 ft 467 kts 164°
2026-04-30 03:20 -9.59876 19.24526 39019 ft 467 kts 164°
2026-04-30 03:21 -9.66098 19.26402 39017 ft 467 kts 164°
2026-04-30 03:21 -9.72341 19.28269 39021 ft 467 kts 165°
2026-04-30 03:22 -9.78579 19.30123 39021 ft 468 kts 165°
2026-04-30 03:22 -9.83767 19.31668 39021 ft 468 kts 164°
2026-04-30 03:23 -9.90009 19.33530 39024 ft 468 kts 164°
2026-04-30 03:23 -9.97265 19.35697 39024 ft 468 kts 164°
2026-04-30 03:24 -10.03505 19.37562 39024 ft 467 kts 165°
2026-04-30 03:24 -10.08688 19.39111 39024 ft 467 kts 165°
2026-04-30 03:25 -10.14928 19.40977 39029 ft 467 kts 165°
2026-04-30 03:25 -10.21169 19.42844 39030 ft 467 kts 165°
2026-04-30 03:26 -10.27404 19.44710 39033 ft 467 kts 165°
2026-04-30 03:26 -10.33640 19.46577 39033 ft 467 kts 165°
2026-04-30 03:27 -10.39820 19.48428 39033 ft 465 kts 164°
2026-04-30 03:27 -10.46014 19.50284 39032 ft 464 kts 164°
2026-04-30 03:28 -10.52215 19.52143 39035 ft 464 kts 164°
2026-04-30 03:28 -10.58408 19.54000 39032 ft 464 kts 164°
2026-04-30 03:29 -10.64601 19.55858 39033 ft 464 kts 164°
2026-04-30 03:29 -10.70799 19.57719 39040 ft 464 kts 164°
2026-04-30 03:30 -10.76957 19.59568 39033 ft 465 kts 164°
2026-04-30 03:30 -10.83161 19.61431 39036 ft 465 kts 164°
2026-04-30 03:31 -10.89371 19.63298 39030 ft 465 kts 164°
2026-04-30 03:31 -10.95580 19.65164 39035 ft 465 kts 164°
2026-04-30 03:32 -11.01782 19.67030 39045 ft 465 kts 164°
2026-04-30 03:32 -11.07953 19.68887 39032 ft 465 kts 164°
2026-04-30 03:33 -11.14158 19.70755 39030 ft 465 kts 164°
2026-04-30 03:33 -11.20364 19.72624 39032 ft 465 kts 164°
2026-04-30 03:34 -11.26572 19.74495 39033 ft 465 kts 164°
2026-04-30 03:34 -11.32774 19.76365 39041 ft 465 kts 164°
2026-04-30 03:35 -11.38983 19.78237 39035 ft 466 kts 164°
2026-04-30 03:35 -11.45168 19.80104 39044 ft 467 kts 164°
2026-04-30 03:36 -11.51401 19.81985 39035 ft 466 kts 164°
2026-04-30 03:36 -11.57621 19.83863 39047 ft 466 kts 164°
2026-04-30 03:37 -11.63837 19.85742 39049 ft 466 kts 164°
2026-04-30 03:37 -11.70059 19.87623 39035 ft 466 kts 165°
2026-04-30 03:38 -11.76227 19.89532 39027 ft 467 kts 161°
2026-04-30 03:38 -11.82310 19.91903 39036 ft 468 kts 160°
2026-04-30 03:39 -11.88360 19.94357 39040 ft 468 kts 159°
2026-04-30 03:39 -11.94402 19.96825 39043 ft 468 kts 159°
2026-04-30 03:40 -12.00446 19.99290 39049 ft 467 kts 159°
2026-04-30 03:40 -12.06492 20.01752 39052 ft 468 kts 160°
2026-04-30 03:41 -12.12512 20.04203 39051 ft 469 kts 160°
2026-04-30 03:41 -12.18584 20.06676 39046 ft 470 kts 160°
2026-04-30 03:42 -12.24649 20.09148 39048 ft 470 kts 160°
2026-04-30 03:42 -12.30716 20.11622 39048 ft 469 kts 160°
2026-04-30 03:43 -12.36789 20.14099 39040 ft 469 kts 160°
2026-04-30 03:43 -12.42850 20.16574 39043 ft 469 kts 160°
2026-04-30 03:44 -12.48870 20.19032 39044 ft 469 kts 160°
2026-04-30 03:44 -12.54933 20.21509 39051 ft 469 kts 160°
2026-04-30 03:45 -12.60991 20.23986 39050 ft 469 kts 160°
2026-04-30 03:45 -12.67052 20.26465 39047 ft 469 kts 160°
2026-04-30 03:46 -12.73109 20.28944 39044 ft 469 kts 160°
2026-04-30 03:46 -12.79164 20.31423 39047 ft 469 kts 160°
2026-04-30 03:47 -12.85185 20.33889 39052 ft 469 kts 160°
2026-04-30 03:47 -12.91246 20.36373 39054 ft 469 kts 160°
2026-04-30 03:48 -12.97303 20.38857 39052 ft 469 kts 160°
2026-04-30 03:48 -13.03363 20.41343 39055 ft 469 kts 160°
2026-04-30 03:49 -13.09421 20.43831 39063 ft 469 kts 160°
2026-04-30 03:49 -13.15475 20.46317 39063 ft 469 kts 160°
2026-04-30 03:50 -13.21534 20.48807 39052 ft 468 kts 160°
2026-04-30 03:50 -13.27529 20.51271 39051 ft 467 kts 160°
2026-04-30 03:51 -13.33556 20.53751 39057 ft 466 kts 160°
2026-04-30 03:51 -13.39585 20.56233 39053 ft 467 kts 160°
2026-04-30 03:52 -13.45625 20.58720 39054 ft 468 kts 160°
2026-04-30 03:52 -13.51671 20.61211 39054 ft 468 kts 160°
2026-04-30 03:53 -13.57709 20.63701 39058 ft 468 kts 160°
2026-04-30 03:53 -13.63705 20.66174 39050 ft 468 kts 160°
2026-04-30 03:54 -13.69757 20.68672 39060 ft 468 kts 160°
2026-04-30 03:54 -13.75808 20.71171 39058 ft 469 kts 160°
2026-04-30 03:55 -13.81871 20.73676 39049 ft 470 kts 160°
2026-04-30 03:55 -13.87901 20.76169 39055 ft 470 kts 160°
2026-04-30 03:56 -13.93959 20.78675 39054 ft 470 kts 160°
2026-04-30 03:56 -14.00024 20.81185 39061 ft 470 kts 160°
2026-04-30 03:57 -14.06081 20.83694 39062 ft 469 kts 160°
2026-04-30 03:57 -14.12135 20.86202 39061 ft 469 kts 160°
2026-04-30 03:58 -14.18150 20.88696 39058 ft 469 kts 160°
2026-04-30 03:58 -14.24208 20.91209 39055 ft 469 kts 160°
2026-04-30 03:59 -14.30260 20.93722 39057 ft 469 kts 160°
2026-04-30 03:59 -14.36309 20.96234 39063 ft 469 kts 160°
2026-04-30 04:00 -14.42366 20.98751 39054 ft 469 kts 160°
2026-04-30 04:00 -14.48412 21.01265 39068 ft 469 kts 160°
2026-04-30 04:01 -14.54467 21.03784 39062 ft 469 kts 160°
2026-04-30 04:01 -14.60482 21.06288 39062 ft 469 kts 160°
2026-04-30 04:02 -14.66531 21.08808 39058 ft 469 kts 160°
2026-04-30 04:02 -14.72597 21.11336 39057 ft 470 kts 160°
2026-04-30 04:03 -14.78666 21.13867 39058 ft 470 kts 160°
2026-04-30 04:03 -14.84731 21.16399 39058 ft 470 kts 160°
2026-04-30 04:04 -14.90787 21.18927 39056 ft 469 kts 160°
2026-04-30 04:04 -14.96804 21.21441 39046 ft 469 kts 160°
2026-04-30 04:05 -15.02857 21.23972 39040 ft 469 kts 160°
2026-04-30 04:05 -15.08905 21.26502 39048 ft 469 kts 160°
2026-04-30 04:06 -15.14956 21.29035 39056 ft 469 kts 160°
2026-04-30 04:06 -15.21010 21.31570 39050 ft 469 kts 160°
2026-04-30 04:07 -15.27060 21.34106 39048 ft 469 kts 160°
2026-04-30 04:08 -15.36097 21.37896 39046 ft 469 kts 160°
2026-04-30 04:08 -15.42146 21.40435 39049 ft 469 kts 160°
2026-04-30 04:09 -15.48200 21.42978 39046 ft 469 kts 160°
2026-04-30 04:09 -15.54252 21.45522 39038 ft 469 kts 160°
2026-04-30 04:10 -15.60301 21.48066 39053 ft 469 kts 160°
2026-04-30 04:10 -15.66361 21.50616 39052 ft 470 kts 160°
2026-04-30 04:11 -15.72389 21.53154 39050 ft 471 kts 160°
2026-04-30 04:11 -15.78461 21.55712 39048 ft 471 kts 160°
2026-04-30 04:12 -15.84527 21.58270 39041 ft 471 kts 160°
2026-04-30 04:12 -15.90599 21.60832 39050 ft 471 kts 160°
2026-04-30 04:13 -15.96660 21.63390 39037 ft 470 kts 160°
2026-04-30 04:13 -16.02675 21.65931 39057 ft 469 kts 160°
2026-04-30 04:14 -16.08727 21.68490 39052 ft 469 kts 160°
2026-04-30 04:14 -16.14777 21.71049 39052 ft 469 kts 160°
2026-04-30 04:15 -16.20826 21.73609 39050 ft 469 kts 160°
2026-04-30 04:15 -16.26837 21.76156 39052 ft 470 kts 159°
2026-04-30 04:16 -16.32879 21.78717 39047 ft 467 kts 159°
2026-04-30 04:16 -16.38895 21.81271 39041 ft 466 kts 160°
2026-04-30 04:17 -16.44903 21.83821 39045 ft 466 kts 160°
2026-04-30 04:17 -16.50910 21.86372 39051 ft 466 kts 160°
2026-04-30 04:18 -16.56914 21.88923 39051 ft 467 kts 159°
2026-04-30 04:18 -16.62894 21.91467 39057 ft 468 kts 160°
2026-04-30 04:19 -16.68921 21.94032 39052 ft 468 kts 159°
2026-04-30 04:19 -16.74947 21.96598 39051 ft 467 kts 159°
2026-04-30 04:20 -16.80970 21.99165 39061 ft 468 kts 159°
2026-04-30 04:20 -16.86996 22.01734 39056 ft 468 kts 159°
2026-04-30 04:21 -16.93032 22.04310 39058 ft 469 kts 159°
2026-04-30 04:21 -16.99030 22.06871 39059 ft 468 kts 159°
2026-04-30 04:22 -17.05062 22.09449 39061 ft 469 kts 159°
2026-04-30 04:22 -17.11100 22.12031 39060 ft 469 kts 159°
2026-04-30 04:23 -17.17139 22.14615 39069 ft 468 kts 160°
2026-04-30 04:23 -17.23165 22.17196 39065 ft 469 kts 160°
2026-04-30 04:24 -17.29207 22.19785 39063 ft 469 kts 160°
2026-04-30 04:24 -17.35209 22.22359 39065 ft 469 kts 160°
2026-04-30 04:25 -17.41252 22.24952 39066 ft 469 kts 160°
2026-04-30 04:25 -17.47294 22.27547 39067 ft 469 kts 160°
2026-04-30 04:26 -17.53339 22.30145 39067 ft 469 kts 160°
2026-04-30 04:26 -17.59387 22.32746 39070 ft 470 kts 160°
2026-04-30 04:27 -17.65432 22.35347 39071 ft 470 kts 160°
2026-04-30 04:27 -17.71435 22.37933 39070 ft 470 kts 160°
2026-04-30 04:28 -17.77481 22.40539 39076 ft 470 kts 160°
2026-04-30 04:28 -17.83530 22.43149 39070 ft 472 kts 160°
2026-04-30 04:29 -17.89568 22.45881 39065 ft 473 kts 158°
2026-04-30 04:29 -17.95554 22.48742 39070 ft 472 kts 159°
2026-04-30 04:30 -18.01574 22.51459 39069 ft 471 kts 160°
2026-04-30 04:30 -18.07619 22.54103 39076 ft 471 kts 160°
2026-04-30 04:31 -18.13629 22.56742 39071 ft 472 kts 160°
2026-04-30 04:31 -18.19690 22.59421 39072 ft 472 kts 160°
2026-04-30 04:32 -18.25749 22.62108 39072 ft 473 kts 160°
2026-04-30 04:32 -18.31808 22.64798 39072 ft 472 kts 160°
2026-04-30 04:33 -18.37864 22.67488 39079 ft 472 kts 160°
2026-04-30 04:33 -18.43889 22.70166 39075 ft 474 kts 160°
2026-04-30 04:34 -18.49972 22.72871 39075 ft 475 kts 160°
2026-04-30 04:34 -18.56061 22.75581 39075 ft 475 kts 160°
2026-04-30 04:35 -18.62146 22.78292 39065 ft 475 kts 160°
2026-04-30 04:35 -18.68218 22.80998 39086 ft 473 kts 160°
2026-04-30 04:36 -18.74309 22.83634 39076 ft 473 kts 161°
2026-04-30 04:36 -18.80423 22.86238 39078 ft 474 kts 161°
2026-04-30 04:37 -18.86492 22.88835 39080 ft 474 kts 161°
2026-04-30 04:37 -18.92606 22.91465 39080 ft 474 kts 161°
2026-04-30 04:38 -18.98713 22.94098 39088 ft 474 kts 161°
2026-04-30 04:38 -19.04839 22.96741 39083 ft 476 kts 161°
2026-04-30 04:39 -19.10963 22.99426 39092 ft 477 kts 161°
2026-04-30 04:39 -19.17080 23.02153 39091 ft 477 kts 160°
2026-04-30 04:40 -19.23155 23.04859 39093 ft 477 kts 161°
2026-04-30 04:40 -19.29274 23.07580 39097 ft 477 kts 161°
2026-04-30 04:41 -19.35412 23.10307 39097 ft 479 kts 161°
2026-04-30 04:41 -19.41551 23.13036 39097 ft 478 kts 161°
2026-04-30 04:42 -19.47665 23.15758 39102 ft 477 kts 161°
2026-04-30 04:42 -19.53738 23.18463 39102 ft 476 kts 161°
2026-04-30 04:43 -19.59848 23.21187 39102 ft 477 kts 161°
2026-04-30 04:43 -19.65979 23.23923 39105 ft 479 kts 161°
2026-04-30 04:44 -19.72119 23.26664 39109 ft 479 kts 161°
2026-04-30 04:44 -19.78259 23.29409 39117 ft 479 kts 161°
2026-04-30 04:45 -19.84360 23.32138 39123 ft 479 kts 161°
2026-04-30 04:45 -19.90506 23.34890 39130 ft 480 kts 161°
2026-04-30 04:46 -19.96663 23.37652 39129 ft 481 kts 161°
2026-04-30 04:46 -20.02476 23.41252 39130 ft 486 kts 150°
2026-04-30 04:47 -20.08047 23.45331 39101 ft 485 kts 149°
2026-04-30 04:47 -20.13555 23.49467 39106 ft 484 kts 148°
2026-04-30 04:48 -20.19031 23.53576 39105 ft 486 kts 148°
2026-04-30 04:48 -20.24583 23.57726 39107 ft 488 kts 149°
2026-04-30 04:49 -20.30150 23.61884 39103 ft 489 kts 148°
2026-04-30 04:49 -20.35714 23.66043 39107 ft 488 kts 148°
2026-04-30 04:50 -20.41273 23.70202 39112 ft 489 kts 148°
2026-04-30 04:50 -20.46801 23.74342 39109 ft 489 kts 148°
2026-04-30 04:51 -20.52357 23.78508 39106 ft 487 kts 148°
2026-04-30 04:51 -20.57899 23.82666 39108 ft 487 kts 148°
2026-04-30 04:52 -20.63436 23.86823 39112 ft 487 kts 148°
2026-04-30 04:52 -20.68972 23.90982 39110 ft 487 kts 148°
2026-04-30 04:53 -20.74514 23.95151 39107 ft 488 kts 149°
2026-04-30 04:53 -20.80074 23.99337 39108 ft 489 kts 149°
2026-04-30 04:54 -20.84699 24.02822 39105 ft 489 kts 149°
2026-04-30 04:54 -20.91160 24.07695 39106 ft 489 kts 149°
2026-04-30 04:55 -20.95810 24.11206 39116 ft 488 kts 149°
2026-04-30 04:55 -21.01313 24.15364 39119 ft 488 kts 149°
2026-04-30 04:56 -21.06869 24.19565 39117 ft 489 kts 149°
2026-04-30 04:56 -21.12421 24.23768 39116 ft 489 kts 149°
2026-04-30 04:57 -21.17984 24.27982 39119 ft 489 kts 149°
2026-04-30 04:57 -21.23539 24.32196 39119 ft 489 kts 149°
2026-04-30 04:58 -21.29099 24.36416 39125 ft 490 kts 149°
2026-04-30 04:58 -21.34673 24.40651 39126 ft 491 kts 149°
2026-04-30 04:59 -21.40198 24.44853 39126 ft 489 kts 149°
2026-04-30 04:59 -21.45746 24.49077 39129 ft 489 kts 149°
2026-04-30 05:00 -21.51286 24.53298 39135 ft 489 kts 149°
2026-04-30 05:00 -21.56858 24.57548 39138 ft 491 kts 149°
2026-04-30 05:01 -21.62428 24.61799 39140 ft 491 kts 149°
2026-04-30 05:01 -21.67963 24.66030 39144 ft 491 kts 149°
2026-04-30 05:02 -21.73531 24.70289 39143 ft 491 kts 149°
2026-04-30 05:02 -21.79098 24.74551 39151 ft 491 kts 149°
2026-04-30 05:03 -21.84674 24.78825 39154 ft 493 kts 149°
2026-04-30 05:03 -21.90267 24.83115 39151 ft 494 kts 149°
2026-04-30 05:04 -21.95861 24.87404 39149 ft 494 kts 149°
2026-04-30 05:04 -22.01424 24.91659 39148 ft 494 kts 149°
2026-04-30 05:05 -22.07024 24.95946 39152 ft 494 kts 149°
2026-04-30 05:05 -22.12632 25.00246 39151 ft 495 kts 149°
2026-04-30 05:06 -22.21050 25.06711 39150 ft 494 kts 149°
2026-04-30 05:06 -22.26649 25.11016 39151 ft 494 kts 149°
2026-04-30 05:07 -22.32209 25.15295 39167 ft 494 kts 149°
2026-04-30 05:07 -22.37810 25.19610 39157 ft 496 kts 149°
2026-04-30 05:08 -22.43423 25.23938 39156 ft 496 kts 149°
2026-04-30 05:08 -22.49046 25.28279 39162 ft 496 kts 149°
2026-04-30 05:09 -22.54662 25.32619 39160 ft 496 kts 149°
2026-04-30 05:09 -22.60240 25.36934 39156 ft 496 kts 149°
2026-04-30 05:10 -22.65863 25.41288 39164 ft 497 kts 149°
2026-04-30 05:10 -22.71489 25.45649 39164 ft 498 kts 149°
2026-04-30 05:11 -22.77119 25.50017 39160 ft 498 kts 149°
2026-04-30 05:11 -22.82746 25.54388 39165 ft 498 kts 149°
2026-04-30 05:12 -22.88338 25.58736 39173 ft 499 kts 149°
2026-04-30 05:12 -22.93982 25.63129 39169 ft 500 kts 149°
2026-04-30 05:13 -22.99580 25.67606 39172 ft 500 kts 148°
2026-04-30 05:13 -23.05112 25.72165 39172 ft 499 kts 147°
2026-04-30 05:14 -23.10644 25.76718 39178 ft 499 kts 148°
2026-04-30 05:14 -23.16149 25.81229 39178 ft 499 kts 148°
2026-04-30 05:15 -23.21690 25.85763 39178 ft 499 kts 148°
2026-04-30 05:15 -23.27235 25.90305 39184 ft 499 kts 148°
2026-04-30 05:16 -23.32778 25.94852 39184 ft 499 kts 148°
2026-04-30 05:16 -23.38312 25.99396 39186 ft 498 kts 148°
2026-04-30 05:17 -23.43847 26.03946 39193 ft 499 kts 148°
2026-04-30 05:17 -23.49381 26.08501 39194 ft 499 kts 148°
2026-04-30 05:18 -23.54919 26.13063 39199 ft 499 kts 148°
2026-04-30 05:18 -23.60568 26.17312 39210 ft 495 kts 153°
2026-04-30 05:19 -23.66445 26.21244 39200 ft 496 kts 154°
2026-04-30 05:19 -23.72324 26.25209 39200 ft 497 kts 153°
2026-04-30 05:20 -23.78035 26.29515 39205 ft 500 kts 148°
2026-04-30 05:20 -23.83589 26.34088 39204 ft 499 kts 148°
2026-04-30 05:21 -23.89106 26.38608 39212 ft 499 kts 148°
2026-04-30 05:21 -23.94691 26.43129 39210 ft 500 kts 149°
2026-04-30 05:22 -24.00288 26.47635 39211 ft 500 kts 149°
2026-04-30 05:22 -24.05888 26.52144 39221 ft 500 kts 149°
2026-04-30 05:23 -24.11486 26.56658 39211 ft 500 kts 149°
2026-04-30 05:23 -24.17088 26.61182 39222 ft 500 kts 149°
2026-04-30 05:24 -24.22686 26.65709 39230 ft 500 kts 149°
2026-04-30 05:24 -24.28244 26.70208 39233 ft 500 kts 149°
2026-04-30 05:25 -24.33708 26.74950 39241 ft 503 kts 144°
2026-04-30 05:25 -24.38985 26.80013 39239 ft 505 kts 144°
2026-04-30 05:26 -24.44235 26.85131 39245 ft 506 kts 143°
2026-04-30 05:26 -24.49489 26.90263 39242 ft 505 kts 143°
2026-04-30 05:27 -24.54739 26.95388 39246 ft 504 kts 143°
2026-04-30 05:27 -24.59749 27.00278 39255 ft 504 kts 144°
2026-04-30 05:28 -24.65006 27.05413 39254 ft 506 kts 144°
2026-04-30 05:28 -24.70264 27.10556 39207 ft 507 kts 144°
2026-04-30 05:29 -24.72895 27.13131 38981 ft 506 kts 144°
2026-04-30 05:29 -24.75520 27.15703 38725 ft 505 kts 144°
2026-04-30 05:29 -24.78146 27.18277 38454 ft 505 kts 144°
2026-04-30 05:29 -24.80768 27.20847 38182 ft 505 kts 143°
2026-04-30 05:30 -24.83360 27.23389 37936 ft 506 kts 144°
2026-04-30 05:30 -24.85992 27.25971 37711 ft 508 kts 144°
2026-04-30 05:30 -24.88625 27.28556 37338 ft 506 kts 143°
2026-04-30 05:30 -24.91243 27.31130 36811 ft 505 kts 143°
2026-04-30 05:31 -24.93866 27.33709 36220 ft 505 kts 143°
2026-04-30 05:31 -24.96489 27.36287 35608 ft 507 kts 143°
2026-04-30 05:31 -24.99131 27.38884 34959 ft 509 kts 143°
2026-04-30 05:31 -25.01930 27.41245 34293 ft 505 kts 155°
2026-04-30 05:32 -25.05106 27.42785 33535 ft 495 kts 172°
2026-04-30 05:32 -25.08462 27.43345 32835 ft 485 kts 184°
2026-04-30 05:32 -25.11833 27.43467 32164 ft 484 kts 186°
2026-04-30 05:32 -25.15199 27.43527 31616 ft 483 kts 186°
2026-04-30 05:33 -25.18540 27.43580 31157 ft 478 kts 186°
2026-04-30 05:33 -25.21816 27.43628 30706 ft 475 kts 186°
2026-04-30 05:33 -25.25106 27.43675 30231 ft 472 kts 186°
2026-04-30 05:33 -25.28371 27.43721 29731 ft 468 kts 186°
2026-04-30 05:34 -25.31609 27.43767 29253 ft 463 kts 186°
2026-04-30 05:34 -25.34821 27.43812 28810 ft 459 kts 186°
2026-04-30 05:34 -25.37995 27.43856 28337 ft 456 kts 186°
2026-04-30 05:34 -25.41159 27.43900 27877 ft 452 kts 186°
2026-04-30 05:35 -25.44294 27.43943 27421 ft 449 kts 186°
2026-04-30 05:35 -25.47408 27.43987 26967 ft 446 kts 186°
2026-04-30 05:35 -25.50502 27.44029 26515 ft 443 kts 185°
2026-04-30 05:35 -25.53534 27.44071 26065 ft 441 kts 185°
2026-04-30 05:36 -25.56582 27.44114 25793 ft 434 kts 185°
2026-04-30 05:36 -25.59564 27.44160 25657 ft 423 kts 185°
2026-04-30 05:36 -25.62472 27.44205 25485 ft 414 kts 185°
2026-04-30 05:36 -25.65326 27.44247 25306 ft 406 kts 185°
2026-04-30 05:37 -25.68119 27.44317 25121 ft 399 kts 182°
2026-04-30 05:37 -25.70823 27.44968 24938 ft 400 kts 162°
2026-04-30 05:37 -25.73214 27.46568 24525 ft 405 kts 140°
2026-04-30 05:37 -25.75003 27.48968 24136 ft 406 kts 121°
2026-04-30 05:38 -25.76409 27.51674 23756 ft 405 kts 119°
2026-04-30 05:38 -25.77801 27.54385 23344 ft 403 kts 120°
2026-04-30 05:38 -25.79223 27.57064 22972 ft 402 kts 121°
2026-04-30 05:38 -25.80661 27.59714 22610 ft 400 kts 121°
2026-04-30 05:39 -25.82105 27.62340 22254 ft 397 kts 122°
2026-04-30 05:39 -25.83529 27.64913 21905 ft 395 kts 122°
2026-04-30 05:39 -25.84965 27.67498 21563 ft 393 kts 122°
2026-04-30 05:39 -25.86398 27.70071 21237 ft 391 kts 122°
2026-04-30 05:40 -25.87821 27.72626 20912 ft 388 kts 122°
2026-04-30 05:40 -25.89239 27.75172 20600 ft 386 kts 122°
2026-04-30 05:40 -25.90647 27.77699 20277 ft 384 kts 122°
2026-04-30 05:40 -25.92046 27.80213 19962 ft 381 kts 122°
2026-04-30 05:41 -25.93438 27.82714 19667 ft 379 kts 122°
2026-04-30 05:41 -25.94818 27.85194 19361 ft 377 kts 122°
2026-04-30 05:41 -25.96195 27.87671 19061 ft 375 kts 122°
2026-04-30 05:41 -25.97539 27.90090 18761 ft 373 kts 122°
2026-04-30 05:42 -25.98899 27.92539 18430 ft 371 kts 122°
2026-04-30 05:42 -26.00247 27.94966 18109 ft 369 kts 122°
2026-04-30 05:42 -26.01590 27.97387 17773 ft 367 kts 122°
2026-04-30 05:42 -26.02922 27.99789 17434 ft 363 kts 122°
2026-04-30 05:43 -26.04218 28.02132 17162 ft 346 kts 122°
2026-04-30 05:43 -26.05443 28.04355 16783 ft 330 kts 122°
2026-04-30 05:43 -26.06616 28.06481 16485 ft 317 kts 123°
2026-04-30 05:43 -26.08012 28.08351 16325 ft 315 kts 146°
2026-04-30 05:44 -26.09963 28.09306 16140 ft 304 kts 175°
2026-04-30 05:44 -26.12046 28.09626 15841 ft 302 kts 180°
2026-04-30 05:44 -26.14130 28.09726 15632 ft 296 kts 193°
2026-04-30 05:44 -26.16058 28.09186 15467 ft 286 kts 206°
2026-04-30 05:45 -26.17918 28.08426 15246 ft 284 kts 208°
2026-04-30 05:45 -26.19764 28.07651 15045 ft 283 kts 207°
2026-04-30 05:45 -26.21599 28.06889 14857 ft 281 kts 207°
2026-04-30 05:45 -26.23427 28.06139 14657 ft 279 kts 207°
2026-04-30 05:46 -26.25250 28.05396 14468 ft 278 kts 207°
2026-04-30 05:46 -26.27065 28.04659 14246 ft 277 kts 207°
2026-04-30 05:46 -26.28859 28.03933 13883 ft 273 kts 207°
2026-04-30 05:46 -26.30645 28.03210 13362 ft 274 kts 207°
2026-04-30 05:47 -26.32438 28.02484 12884 ft 272 kts 207°
2026-04-30 05:47 -26.34192 28.01773 12507 ft 272 kts 207°
2026-04-30 05:47 -26.35972 28.01058 12236 ft 273 kts 205°
2026-04-30 05:47 -26.37879 28.00769 11928 ft 284 kts 180°
2026-04-30 05:48 -26.39774 28.01412 11724 ft 289 kts 153°
2026-04-30 05:48 -26.41279 28.02876 11497 ft 290 kts 127°
2026-04-30 05:48 -26.42125 28.04896 11247 ft 287 kts 102°
2026-04-30 05:48 -26.42570 28.07048 11077 ft 284 kts 106°
2026-04-30 05:49 -26.43107 28.09160 10852 ft 282 kts 104°
2026-04-30 05:49 -26.43606 28.11274 10644 ft 281 kts 104°
2026-04-30 05:49 -26.44042 28.13395 10347 ft 280 kts 94°
2026-04-30 05:49 -26.43846 28.15522 10072 ft 273 kts 68°
2026-04-30 05:50 -26.43070 28.17403 9814 ft 263 kts 47°
2026-04-30 05:50 -26.41680 28.18547 9556 ft 247 kts 13°
2026-04-30 05:50 -26.40035 28.18690 9392 ft 234 kts 354°
2026-04-30 05:50 -26.38412 28.18633 9164 ft 233 kts 358°
2026-04-30 05:51 -26.36789 28.18740 8928 ft 234 kts
2026-04-30 05:51 -26.35191 28.19060 8745 ft 233 kts 10°
2026-04-30 05:51 -26.33620 28.19507 8500 ft 233 kts 12°
2026-04-30 05:51 -26.32061 28.19985 8339 ft 230 kts 13°
2026-04-30 05:52 -26.30554 28.20469 8252 ft 222 kts 13°
2026-04-30 05:52 -26.29079 28.20924 8074 ft 219 kts 12°
2026-04-30 05:52 -26.27605 28.21350 7788 ft 219 kts 12°
2026-04-30 05:52 -26.26172 28.21804 7484 ft 213 kts 13°
2026-04-30 05:53 -26.24783 28.22240 7249 ft 200 kts 14°
2026-04-30 05:53 -26.23494 28.22637 7001 ft 186 kts 14°
2026-04-30 05:53 -26.22293 28.23011 6756 ft 171 kts 13°
2026-04-30 05:53 -26.21199 28.23350 6523 ft 156 kts 14°
2026-04-30 05:54 -26.20203 28.23658 6330 ft 142 kts 14°
2026-04-30 05:54 -26.19274 28.23947 6130 ft 137 kts 15°
2026-04-30 05:54 -26.18358 28.24231 5940 ft 137 kts 13°
2026-04-30 05:54 -26.17429 28.24519 5738 ft 139 kts 15°
2026-04-30 05:55 -26.16493 28.24813 5738 ft 147 kts 15°
2026-04-30 05:55 -26.15470 28.25142 6354 ft 158 kts 15°
2026-04-30 05:55 -26.14374 28.25493 6985 ft 170 kts 15°
2026-04-30 05:55 -26.13209 28.25867 7393 ft 183 kts 13°
2026-04-30 05:56 -26.11912 28.26281 7668 ft 209 kts 14°
2026-04-30 05:56 -26.10442 28.26754 7926 ft 227 kts 14°
2026-04-30 05:56 -26.08921 28.27246 7991 ft 227 kts 14°
2026-04-30 05:56 -26.07407 28.27763 7999 ft 229 kts 19°
2026-04-30 05:57 -26.06136 28.28836 8000 ft 236 kts 51°
2026-04-30 05:57 -26.05562 28.30564 8000 ft 247 kts 82°
2026-04-30 05:57 -26.05884 28.32466 8001 ft 259 kts 114°
2026-04-30 05:57 -26.07039 28.34019 8007 ft 266 kts 142°
2026-04-30 05:58 -26.08619 28.35119 7994 ft 271 kts 158°
2026-04-30 05:58 -26.10444 28.35487 8002 ft 267 kts 184°
2026-04-30 05:58 -26.12298 28.35342 7997 ft 268 kts 189°
2026-04-30 05:58 -26.14150 28.35104 8001 ft 269 kts 190°
2026-04-30 05:59 -26.16012 28.34854 7999 ft 269 kts 190°
2026-04-30 05:59 -26.17865 28.34606 7997 ft 269 kts 190°
2026-04-30 05:59 -26.19699 28.34349 8003 ft 269 kts 191°
2026-04-30 05:59 -26.21535 28.33989 7998 ft 267 kts 194°
2026-04-30 06:00 -26.23360 28.33586 7999 ft 267 kts 195°
2026-04-30 06:00 -26.25185 28.33191 8008 ft 268 kts 195°
2026-04-30 06:00 -26.27028 28.32809 8000 ft 269 kts 195°
2026-04-30 06:00 -26.28829 28.32441 7996 ft 257 kts 195°
2026-04-30 06:01 -26.30533 28.32056 8008 ft 242 kts 203°
2026-04-30 06:01 -26.31839 28.31126 8027 ft 209 kts 238°
2026-04-30 06:01 -26.32344 28.29786 8015 ft 174 kts 275°
2026-04-30 06:01 -26.32330 28.28487 8009 ft 165 kts 285°
2026-04-30 06:02 -26.31973 28.27320 8008 ft 157 kts 306°
2026-04-30 06:02 -26.31420 28.26282 7999 ft 156 kts 309°
2026-04-30 06:02 -26.30832 28.25262 7996 ft 157 kts 310°
2026-04-30 06:02 -26.30220 28.24212 7664 ft 166 kts 310°
2026-04-30 06:03 -26.29614 28.23153 7473 ft 162 kts 310°
2026-04-30 06:03 -26.29032 28.22111 7332 ft 155 kts 310°
2026-04-30 06:03 -26.28201 28.21489 7200 ft 146 kts 355°
2026-04-30 06:03 -26.27193 28.21554 7196 ft 147 kts
2026-04-30 06:04 -26.26202 28.21826 7195 ft 147 kts 12°
2026-04-30 06:04 -26.25191 28.22120 7177 ft 153 kts 12°
2026-04-30 06:04 -26.24154 28.22427 7103 ft 154 kts 14°
2026-04-30 06:05 -26.22142 28.23058 6729 ft 141 kts 13°
2026-04-30 06:05 -26.21223 28.23341 6555 ft 136 kts 13°
2026-04-30 06:05 -26.20327 28.23619 6374 ft 136 kts 14°
2026-04-30 06:05 -26.19405 28.23906 6169 ft 138 kts 16°
2026-04-30 06:06 -26.18485 28.24192 5980 ft 138 kts 13°
2026-04-30 06:06 -26.17570 28.24475 5775 ft 136 kts 14°
2026-04-30 06:06 -26.16658 28.24759 5586 ft 136 kts 13°
2026-04-30 06:06 -26.15790 28.25025 5518 ft 108 kts 15°
2026-04-30 06:07 -26.15334 28.25166 5518 ft 40 kts 15°
2026-04-30 06:07 -26.15090 28.25242 5513 ft 34 kts 15°
2026-04-30 06:07 -26.14870 28.25307 5512 ft 31 kts 11°
2026-04-30 06:07 -26.14662 28.25317 5508 ft 29 kts 354°
2026-04-30 06:08 -26.14528 28.25267 5513 ft 12 kts 317°
2026-04-30 06:08 -26.14475 28.25212 5514 ft 9 kts 316°
2026-04-30 06:08 -26.14418 28.25150 5517 ft 15 kts 316°
2026-04-30 06:08 -26.14335 28.25061 5530 ft 16 kts 316°
2026-04-30 06:09 -26.14246 28.24965 5535 ft 22 kts 316°
2026-04-30 06:09 -26.14116 28.24824 5535 ft 29 kts 315°
2026-04-30 06:09 -26.13977 28.24672 5535 ft 27 kts 315°
2026-04-30 06:09 -26.13849 28.24534 5537 ft 24 kts 315°
2026-04-30 06:10 -26.13742 28.24417 5548 ft 19 kts 316°
2026-04-30 06:10 -26.13647 28.24317 5547 ft 18 kts 315°
2026-04-30 06:10 -26.13548 28.24207 5548 ft 24 kts 316°
2026-04-30 06:10 -26.13418 28.24065 5558 ft 24 kts 316°
2026-04-30 06:11 -26.13303 28.23942 5555 ft 23 kts 315°
2026-04-30 06:11 -26.13189 28.23819 5555 ft 22 kts 316°
2026-04-30 06:11 -26.13135 28.23674 5553 ft 20 kts 277°
2026-04-30 06:11 -26.13108 28.23549 5555 ft 10 kts 317°
2026-04-30 06:12 -26.13059 28.23539 5553 ft 4 kts
2026-04-30 06:12 -26.13043 28.23540 5555 ft 2 kts
2026-04-30 06:12 -26.13033 28.23541 5555 ft 2 kts
2026-04-30 06:12 -26.13032 28.23541 5555 ft 0 kts